Time,TemperatureF,DewpointF,PressureIn,WindDirection,WindDirectionDegrees,WindSpeedMPH,WindSpeedGustMPH,Humidity,HourlyPrecipIn,Conditions,Clouds,dailyrainin,SoftwareType,DateUTC
2013-04-06 00:01:00,50.1,36.7,30.04,East,83,6.0,6.0,60,0.00,,,0.00,Wunderground v.1.15,2013-04-06 05:01:00,
2013-04-06 00:07:00,50.2,36.4,30.04,East,90,6.0,9.0,59,0.00,,,0.00,Wunderground v.1.15,2013-04-06 05:07:00,
2013-04-06 00:12:00,50.4,36.6,30.04,East,87,7.0,8.0,59,0.00,,,0.00,Wunderground v.1.15,2013-04-06 05:12:00,
2013-04-06 00:17:00,50.5,36.7,30.04,East,96,7.0,9.0,59,0.00,,,0.00,Wunderground v.1.15,2013-04-06 05:17:00,
2013-04-06 00:23:00,50.6,36.8,30.04,East,93,7.0,11.0,59,0.00,,,0.00,Wunderground v.1.15,2013-04-06 05:23:00,
2013-04-06 00:28:00,50.6,36.4,30.04,ESE,112,6.0,11.0,58,0.00,,,0.00,Wunderground v.1.15,2013-04-06 05:28:00,
2013-04-06 00:34:00,50.6,36.4,30.04,East,96,6.0,10.0,58,0.00,,,0.00,Wunderground v.1.15,2013-04-06 05:34:00,
2013-04-06 00:39:00,50.6,36.4,30.04,East,92,6.0,10.0,58,0.00,,,0.00,Wunderground v.1.15,2013-04-06 05:39:00,
2013-04-06 00:44:00,50.6,36.4,30.04,East,91,6.0,11.0,58,0.00,,,0.00,Wunderground v.1.15,2013-04-06 05:44:00,
2013-04-06 00:49:00,50.6,36.4,30.04,East,98,7.0,11.0,58,0.00,,,0.00,Wunderground v.1.15,2013-04-06 05:49:00,
2013-04-06 00:55:00,50.4,36.2,30.04,ESE,102,7.0,7.0,58,0.00,,,0.00,Wunderground v.1.15,2013-04-06 05:55:00,
2013-04-06 01:01:00,50.3,36.5,30.04,East,99,6.0,7.0,59,0.00,,,0.00,Wunderground v.1.15,2013-04-06 06:01:00,
2013-04-06 01:06:00,50.2,36.8,30.04,ESE,108,6.0,8.0,60,0.00,,,0.00,Wunderground v.1.15,2013-04-06 06:06:00,
2013-04-06 01:11:00,50.1,36.7,30.04,ESE,103,6.0,7.0,60,0.00,,,0.00,Wunderground v.1.15,2013-04-06 06:11:00,
2013-04-06 01:17:00,50.0,36.7,30.04,ESE,104,6.0,8.0,60,0.00,,,0.00,Wunderground v.1.15,2013-04-06 06:17:00,
2013-04-06 01:22:00,50.0,37.1,30.04,ESE,104,7.0,8.0,61,0.00,,,0.00,Wunderground v.1.15,2013-04-06 06:22:00,
2013-04-06 01:27:00,49.9,37.0,30.04,ESE,120,6.0,8.0,61,0.00,,,0.00,Wunderground v.1.15,2013-04-06 06:27:00,
2013-04-06 01:33:00,49.8,37.3,30.04,SE,127,7.0,13.0,62,0.00,,,0.00,Wunderground v.1.15,2013-04-06 06:33:00,
2013-04-06 01:38:00,49.7,37.2,30.03,ESE,110,7.0,13.0,62,0.00,,,0.00,Wunderground v.1.15,2013-04-06 06:38:00,
2013-04-06 01:43:00,49.7,37.2,30.03,ESE,123,6.0,8.0,62,0.00,,,0.00,Wunderground v.1.15,2013-04-06 06:43:00,
2013-04-06 01:49:00,49.7,37.2,30.03,East,98,6.0,12.0,62,0.00,,,0.00,Wunderground v.1.15,2013-04-06 06:49:00,
2013-04-06 01:55:00,49.6,37.1,30.03,East,93,6.0,8.0,62,0.00,,,0.00,Wunderground v.1.15,2013-04-06 06:55:00,
2013-04-06 02:00:00,49.6,37.1,30.03,ESE,109,7.0,7.0,62,0.00,,,0.00,Wunderground v.1.15,2013-04-06 07:00:00,
2013-04-06 02:05:00,49.6,37.5,30.02,ESE,102,6.0,8.0,63,0.00,,,0.00,Wunderground v.1.15,2013-04-06 07:05:00,
2013-04-06 02:11:00,49.7,37.2,30.03,ESE,114,6.0,9.0,62,0.00,,,0.00,Wunderground v.1.15,2013-04-06 07:11:00,
2013-04-06 02:17:00,49.8,37.3,30.02,ESE,111,6.0,11.0,62,0.00,,,0.00,Wunderground v.1.15,2013-04-06 07:17:00,
2013-04-06 02:22:00,49.9,37.8,30.03,ESE,122,7.0,7.0,63,0.00,,,0.00,Wunderground v.1.15,2013-04-06 07:22:00,
2013-04-06 02:28:00,49.8,37.3,30.02,SE,129,6.0,7.0,62,0.00,,,0.00,Wunderground v.1.15,2013-04-06 07:28:00,
2013-04-06 02:34:00,50.0,37.5,30.02,ESE,123,7.0,9.0,62,0.00,,,0.00,Wunderground v.1.15,2013-04-06 07:34:00,
2013-04-06 02:39:00,50.1,37.2,30.03,East,96,7.0,9.0,61,0.00,,,0.00,Wunderground v.1.15,2013-04-06 07:39:00,
2013-04-06 02:45:00,50.1,37.6,30.03,SE,132,6.0,7.0,62,0.00,,,0.00,Wunderground v.1.15,2013-04-06 07:45:00,
2013-04-06 02:51:00,50.1,37.6,30.02,East,100,6.0,6.0,62,0.00,,,0.00,Wunderground v.1.15,2013-04-06 07:51:00,
2013-04-06 02:57:00,50.0,37.5,30.02,East,94,6.0,10.0,62,0.00,,,0.00,Wunderground v.1.15,2013-04-06 07:57:00,
2013-04-06 03:02:00,49.9,37.8,30.01,ESE,110,6.0,8.0,63,0.00,,,0.00,Wunderground v.1.15,2013-04-06 08:02:00,
2013-04-06 03:08:00,49.9,37.8,30.01,ESE,108,6.0,8.0,63,0.00,,,0.00,Wunderground v.1.15,2013-04-06 08:08:00,
2013-04-06 03:13:00,49.9,37.8,30.00,SE,136,7.0,10.0,63,0.00,,,0.00,Wunderground v.1.15,2013-04-06 08:13:00,
2013-04-06 03:19:00,50.0,37.5,30.00,ESE,102,7.0,11.0,62,0.00,,,0.00,Wunderground v.1.15,2013-04-06 08:19:00,
2013-04-06 03:24:00,50.1,37.6,30.00,ESE,107,7.0,9.0,62,0.00,,,0.00,Wunderground v.1.15,2013-04-06 08:24:00,
2013-04-06 03:30:00,50.2,37.3,29.99,ESE,112,7.0,11.0,61,0.00,,,0.00,Wunderground v.1.15,2013-04-06 08:30:00,
2013-04-06 03:35:00,50.2,37.3,29.99,ESE,119,8.0,12.0,61,0.00,,,0.00,Wunderground v.1.15,2013-04-06 08:35:00,
2013-04-06 03:40:00,50.3,36.9,30.00,ESE,116,8.0,8.0,60,0.00,,,0.00,Wunderground v.1.15,2013-04-06 08:40:00,
2013-04-06 03:46:00,50.3,36.9,30.00,South,169,8.0,9.0,60,0.00,,,0.00,Wunderground v.1.15,2013-04-06 08:46:00,
2013-04-06 03:52:00,50.4,37.0,30.00,SSE,150,8.0,10.0,60,0.00,,,0.00,Wunderground v.1.15,2013-04-06 08:52:00,
2013-04-06 03:57:00,50.4,37.0,30.00,ESE,120,7.0,10.0,60,0.00,,,0.00,Wunderground v.1.15,2013-04-06 08:57:00,
2013-04-06 04:03:00,50.4,37.0,30.00,SE,125,6.0,9.0,60,0.00,,,0.00,Wunderground v.1.15,2013-04-06 09:03:00,
2013-04-06 04:08:00,50.3,36.9,30.00,SSE,161,6.0,10.0,60,0.00,,,0.00,Wunderground v.1.15,2013-04-06 09:08:00,
2013-04-06 04:14:00,50.3,36.9,30.00,SE,141,6.0,11.0,60,0.00,,,0.00,Wunderground v.1.15,2013-04-06 09:14:00,
2013-04-06 04:19:00,50.3,36.9,30.00,ESE,116,7.0,11.0,60,0.00,,,0.00,Wunderground v.1.15,2013-04-06 09:19:00,
2013-04-06 04:25:00,50.3,36.9,29.99,SSE,151,8.0,11.0,60,0.00,,,0.00,Wunderground v.1.15,2013-04-06 09:25:00,
2013-04-06 04:30:00,50.3,36.9,29.99,SE,141,7.0,8.0,60,0.00,,,0.00,Wunderground v.1.15,2013-04-06 09:30:00,
2013-04-06 04:35:00,50.3,36.9,29.99,ESE,114,7.0,12.0,60,0.00,,,0.00,Wunderground v.1.15,2013-04-06 09:35:00,
2013-04-06 04:41:00,50.2,36.8,29.99,ESE,106,8.0,11.0,60,0.00,,,0.00,Wunderground v.1.15,2013-04-06 09:41:00,
2013-04-06 04:46:00,50.2,36.8,29.99,SSE,160,8.0,11.0,60,0.00,,,0.00,Wunderground v.1.15,2013-04-06 09:46:00,
2013-04-06 04:51:00,50.2,36.8,29.99,SE,132,8.0,9.0,60,0.00,,,0.00,Wunderground v.1.15,2013-04-06 09:51:00,
2013-04-06 04:57:00,50.2,36.8,29.98,SE,136,7.0,13.0,60,0.00,,,0.00,Wunderground v.1.15,2013-04-06 09:57:00,
2013-04-06 05:02:00,50.1,36.7,29.98,ESE,123,7.0,15.0,60,0.00,,,0.00,Wunderground v.1.15,2013-04-06 10:02:00,
2013-04-06 05:07:00,50.1,36.7,29.98,SE,131,8.0,15.0,60,0.00,,,0.00,Wunderground v.1.15,2013-04-06 10:07:00,
2013-04-06 05:13:00,50.1,36.7,29.98,SE,127,9.0,11.0,60,0.00,,,0.00,Wunderground v.1.15,2013-04-06 10:13:00,
2013-04-06 05:19:00,50.1,36.7,29.98,SSE,150,9.0,11.0,60,0.00,,,0.00,Wunderground v.1.15,2013-04-06 10:19:00,
2013-04-06 05:25:00,50.1,36.3,29.98,SSE,152,8.0,14.0,59,0.00,,,0.00,Wunderground v.1.15,2013-04-06 10:25:00,
2013-04-06 05:30:00,50.1,36.7,29.97,SE,136,8.0,8.0,60,0.00,,,0.00,Wunderground v.1.15,2013-04-06 10:30:00,
2013-04-06 05:35:00,50.1,36.7,29.97,SE,136,8.0,12.0,60,0.00,,,0.00,Wunderground v.1.15,2013-04-06 10:35:00,
2013-04-06 05:41:00,50.1,36.3,29.97,SE,128,8.0,11.0,59,0.00,,,0.00,Wunderground v.1.15,2013-04-06 10:41:00,
2013-04-06 05:46:00,50.1,36.3,29.97,SE,136,8.0,13.0,59,0.00,,,0.00,Wunderground v.1.15,2013-04-06 10:46:00,
2013-04-06 05:51:00,50.3,36.5,29.97,ESE,114,9.0,9.0,59,0.00,,,0.00,Wunderground v.1.15,2013-04-06 10:51:00,
2013-04-06 05:57:00,50.3,36.5,29.97,SSE,150,8.0,15.0,59,0.00,,,0.00,Wunderground v.1.15,2013-04-06 10:57:00,
2013-04-06 06:02:00,50.2,36.4,29.97,SE,146,8.0,8.0,59,0.00,,,0.00,Wunderground v.1.15,2013-04-06 11:02:00,
2013-04-06 06:07:00,50.0,36.7,29.97,SE,124,8.0,10.0,60,0.00,,,0.00,Wunderground v.1.15,2013-04-06 11:07:00,
2013-04-06 06:13:00,49.8,36.5,29.97,SE,141,7.0,8.0,60,0.00,,,0.00,Wunderground v.1.15,2013-04-06 11:13:00,
2013-04-06 06:19:00,49.6,36.7,29.97,SE,146,7.0,10.0,61,0.00,,,0.00,Wunderground v.1.15,2013-04-06 11:19:00,
2013-04-06 06:24:00,49.6,36.7,29.98,SE,126,7.0,11.0,61,0.00,,,0.00,Wunderground v.1.15,2013-04-06 11:24:00,
2013-04-06 06:31:00,49.5,37.0,29.98,SE,136,6.0,6.0,62,0.00,,,0.00,Wunderground v.1.15,2013-04-06 11:31:00,
2013-04-06 06:35:00,49.4,36.9,29.97,SE,136,6.0,8.0,62,0.00,,,0.00,Wunderground v.1.15,2013-04-06 11:35:00,
2013-04-06 06:40:00,49.4,36.9,29.97,SE,136,6.0,8.0,62,0.00,,,0.00,Wunderground v.1.15,2013-04-06 11:40:00,
2013-04-06 06:46:00,49.4,36.5,29.97,SE,141,6.0,12.0,61,0.00,,,0.00,Wunderground v.1.15,2013-04-06 11:46:00,
2013-04-06 06:52:00,49.5,36.6,29.97,SE,141,5.0,6.0,61,0.00,,,0.00,Wunderground v.1.15,2013-04-06 11:52:00,
2013-04-06 06:57:00,49.8,36.5,29.98,SSE,150,6.0,6.0,60,0.00,,,0.00,Wunderground v.1.15,2013-04-06 11:57:00,
2013-04-06 07:03:00,50.1,36.7,29.98,SSE,167,6.0,6.0,60,0.00,,,0.00,Wunderground v.1.15,2013-04-06 12:03:00,
2013-04-06 07:09:00,50.1,36.7,29.98,SE,146,5.0,7.0,60,0.00,,,0.00,Wunderground v.1.15,2013-04-06 12:09:00,
2013-04-06 07:14:00,50.2,36.4,29.98,SSE,150,5.0,7.0,59,0.00,,,0.00,Wunderground v.1.15,2013-04-06 12:14:00,
2013-04-06 07:19:00,50.3,36.5,29.98,SE,125,6.0,7.0,59,0.00,,,0.00,Wunderground v.1.15,2013-04-06 12:19:00,
2013-04-06 07:24:00,50.5,36.7,29.98,South,173,6.0,6.0,59,0.00,,,0.00,Wunderground v.1.15,2013-04-06 12:24:00,
2013-04-06 07:30:00,50.6,36.8,29.98,SSE,152,6.0,6.0,59,0.00,,,0.00,Wunderground v.1.15,2013-04-06 12:30:00,
2013-04-06 07:35:00,50.7,36.9,29.98,South,191,7.0,10.0,59,0.00,,,0.00,Wunderground v.1.15,2013-04-06 12:35:00,
2013-04-06 07:41:00,50.9,37.1,29.98,SE,136,6.0,6.0,59,0.00,,,0.00,Wunderground v.1.15,2013-04-06 12:41:00,
2013-04-06 07:47:00,51.1,37.3,29.98,SE,141,5.0,7.0,59,0.00,,,0.00,Wunderground v.1.15,2013-04-06 12:47:00,
2013-04-06 07:52:00,51.3,37.4,29.98,SSE,167,5.0,9.0,59,0.00,,,0.00,Wunderground v.1.15,2013-04-06 12:52:00,
2013-04-06 07:57:00,51.4,37.5,29.98,SSE,158,6.0,11.0,59,0.00,,,0.00,Wunderground v.1.15,2013-04-06 12:57:00,
2013-04-06 08:03:00,51.6,37.7,29.98,SE,146,6.0,9.0,59,0.00,,,0.00,Wunderground v.1.15,2013-04-06 13:03:00,
2013-04-06 08:08:00,51.8,38.3,29.98,SSE,163,5.0,9.0,60,0.00,,,0.00,Wunderground v.1.15,2013-04-06 13:08:00,
2013-04-06 08:14:00,52.0,38.5,29.98,South,183,6.0,8.0,60,0.00,,,0.00,Wunderground v.1.15,2013-04-06 13:14:00,
2013-04-06 08:20:00,52.3,38.4,29.97,SSE,150,7.0,7.0,59,0.00,,,0.00,Wunderground v.1.15,2013-04-06 13:20:00,
2013-04-06 08:25:00,52.4,38.0,29.97,SE,141,8.0,11.0,58,0.00,,,0.00,Wunderground v.1.15,2013-04-06 13:25:00,
2013-04-06 08:31:00,52.8,38.9,29.97,SE,129,7.0,8.0,59,0.00,,,0.00,Wunderground v.1.15,2013-04-06 13:31:00,
2013-04-06 08:37:00,53.3,39.3,29.97,SE,132,7.0,16.0,59,0.00,,,0.00,Wunderground v.1.15,2013-04-06 13:37:00,
2013-04-06 08:43:00,53.7,39.3,29.96,ESE,107,9.0,9.0,58,0.00,,,0.00,Wunderground v.1.15,2013-04-06 13:43:00,
2013-04-06 08:48:00,54.1,40.1,29.96,South,187,7.0,9.0,59,0.00,,,0.00,Wunderground v.1.15,2013-04-06 13:48:00,
2013-04-06 08:53:00,54.4,39.9,29.96,SSE,159,7.0,11.0,58,0.00,,,0.00,Wunderground v.1.15,2013-04-06 13:53:00,
2013-04-06 08:59:00,54.9,40.4,29.96,SSE,151,9.0,18.0,58,0.00,,,0.00,Wunderground v.1.15,2013-04-06 13:59:00,
2013-04-06 09:04:00,55.5,40.5,29.96,South,182,10.0,16.0,57,0.00,,,0.00,Wunderground v.1.15,2013-04-06 14:04:00,
2013-04-06 09:10:00,56.2,41.2,29.96,SSW,197,10.0,13.0,57,0.00,,,0.00,Wunderground v.1.15,2013-04-06 14:10:00,
2013-04-06 09:16:00,56.5,40.5,29.96,SE,141,9.0,16.0,55,0.00,,,0.00,Wunderground v.1.15,2013-04-06 14:16:00,
2013-04-06 09:22:00,56.6,41.1,29.96,SSE,150,10.0,19.0,56,0.00,,,0.00,Wunderground v.1.15,2013-04-06 14:22:00,
2013-04-06 09:27:00,56.8,40.8,29.95,SSE,152,8.0,19.0,55,0.00,,,0.00,Wunderground v.1.15,2013-04-06 14:27:00,
2013-04-06 09:32:00,57.1,41.1,29.95,South,190,7.0,13.0,55,0.00,,,0.00,Wunderground v.1.15,2013-04-06 14:32:00,
2013-04-06 09:38:00,57.4,41.8,29.94,South,172,8.0,14.0,56,0.00,,,0.00,Wunderground v.1.15,2013-04-06 14:38:00,
2013-04-06 09:43:00,57.9,41.8,29.94,SSE,156,9.0,12.0,55,0.00,,,0.00,Wunderground v.1.15,2013-04-06 14:43:00,
2013-04-06 09:49:00,58.5,41.9,29.94,SE,125,9.0,13.0,54,0.00,,,0.00,Wunderground v.1.15,2013-04-06 14:49:00,
2013-04-06 09:54:00,59.0,42.4,29.94,South,184,9.0,14.0,54,0.00,,,0.00,Wunderground v.1.15,2013-04-06 14:54:00,
2013-04-06 09:59:00,59.5,41.9,29.93,SSE,164,9.0,19.0,52,0.00,,,0.00,Wunderground v.1.15,2013-04-06 14:59:00,
2013-04-06 10:04:00,59.9,41.2,29.92,South,170,12.0,16.0,50,0.00,,,0.00,Wunderground v.1.15,2013-04-06 15:04:00,
2013-04-06 10:09:00,60.2,42.0,29.92,SSE,158,13.0,19.0,51,0.00,,,0.00,Wunderground v.1.15,2013-04-06 15:09:00,
2013-04-06 10:15:00,60.7,41.9,29.92,SSE,167,10.0,19.0,50,0.00,,,0.00,Wunderground v.1.15,2013-04-06 15:15:00,
2013-04-06 10:21:00,61.3,42.0,29.92,SE,136,10.0,13.0,49,0.00,,,0.00,Wunderground v.1.15,2013-04-06 15:21:00,
2013-04-06 10:27:00,61.6,42.8,29.92,SSE,152,11.0,19.0,50,0.00,,,0.00,Wunderground v.1.15,2013-04-06 15:27:00,
2013-04-06 10:33:00,61.4,42.6,29.91,SSE,164,11.0,14.0,50,0.00,,,0.00,Wunderground v.1.15,2013-04-06 15:33:00,
2013-04-06 10:38:00,61.6,42.8,29.91,SE,146,12.0,21.0,50,0.00,,,0.00,Wunderground v.1.15,2013-04-06 15:38:00,
2013-04-06 10:44:00,62.5,44.1,29.90,SE,129,10.0,11.0,51,0.00,,,0.00,Wunderground v.1.15,2013-04-06 15:44:00,
2013-04-06 10:50:00,63.4,44.4,29.90,SE,141,9.0,18.0,50,0.00,,,0.00,Wunderground v.1.15,2013-04-06 15:50:00,
2013-04-06 10:55:00,63.9,44.4,29.89,South,174,11.0,18.0,49,0.00,,,0.00,Wunderground v.1.15,2013-04-06 15:55:00,
2013-04-06 11:00:00,64.2,43.5,29.89,SE,141,13.0,13.0,47,0.00,,,0.00,Wunderground v.1.15,2013-04-06 16:00:00,
2013-04-06 11:06:00,64.2,43.0,29.89,SE,141,13.0,20.0,46,0.00,,,0.00,Wunderground v.1.15,2013-04-06 16:06:00,
2013-04-06 11:12:00,64.4,43.7,29.89,South,169,13.0,20.0,47,0.00,,,0.00,Wunderground v.1.15,2013-04-06 16:12:00,
2013-04-06 11:17:00,64.7,44.0,29.89,SSE,153,12.0,23.0,47,0.00,,,0.00,Wunderground v.1.15,2013-04-06 16:17:00,
2013-04-06 11:23:00,65.5,43.0,29.89,SE,141,13.0,17.0,44,0.00,,,0.00,Wunderground v.1.15,2013-04-06 16:23:00,
2013-04-06 11:28:00,66.2,43.0,29.89,South,188,14.0,17.0,43,0.00,,,0.00,Wunderground v.1.15,2013-04-06 16:28:00,
2013-04-06 11:33:00,66.5,42.1,29.89,SSE,163,15.0,22.0,41,0.00,,,0.00,Wunderground v.1.15,2013-04-06 16:33:00,
2013-04-06 11:39:00,66.2,43.6,29.88,SSE,156,16.0,22.0,44,0.00,,,0.00,Wunderground v.1.15,2013-04-06 16:39:00,
2013-04-06 11:44:00,66.5,42.7,29.88,SSE,163,15.0,18.0,42,0.00,,,0.00,Wunderground v.1.15,2013-04-06 16:44:00,
2013-04-06 11:50:00,66.3,41.9,29.87,SSE,159,16.0,16.0,41,0.00,,,0.00,Wunderground v.1.15,2013-04-06 16:50:00,
2013-04-06 11:56:00,66.4,43.8,29.87,SSE,163,14.0,17.0,44,0.00,,,0.00,Wunderground v.1.15,2013-04-06 16:56:00,
2013-04-06 12:01:00,66.4,43.2,29.86,SSE,167,13.0,13.0,43,0.00,,,0.00,Wunderground v.1.15,2013-04-06 17:01:00,
2013-04-06 12:06:00,66.5,43.3,29.86,South,172,13.0,15.0,43,0.00,,,0.00,Wunderground v.1.15,2013-04-06 17:06:00,
2013-04-06 12:11:00,66.6,42.8,29.86,SSE,164,14.0,17.0,42,0.00,,,0.00,Wunderground v.1.15,2013-04-06 17:11:00,
2013-04-06 12:16:00,67.2,42.7,29.85,SSE,162,15.0,22.0,41,0.00,,,0.00,Wunderground v.1.15,2013-04-06 17:16:00,
2013-04-06 12:21:00,67.6,42.4,29.85,SSE,164,15.0,20.0,40,0.00,,,0.00,Wunderground v.1.15,2013-04-06 17:21:00,
2013-04-06 12:27:00,67.9,42.7,29.84,SSE,167,16.0,26.0,40,0.00,,,0.00,Wunderground v.1.15,2013-04-06 17:27:00,
2013-04-06 12:33:00,67.9,42.7,29.84,SE,141,19.0,20.0,40,0.00,,,0.00,Wunderground v.1.15,2013-04-06 17:33:00,
2013-04-06 12:39:00,68.1,42.9,29.83,South,174,18.0,24.0,40,0.00,,,0.00,Wunderground v.1.15,2013-04-06 17:39:00,
2013-04-06 12:45:00,68.5,41.9,29.82,South,171,15.0,28.0,38,0.00,,,0.00,Wunderground v.1.15,2013-04-06 17:45:00,
2013-04-06 12:50:00,68.3,42.4,29.83,SSE,160,15.0,15.0,39,0.00,,,0.00,Wunderground v.1.15,2013-04-06 17:50:00,
2013-04-06 12:56:00,68.2,41.6,29.82,SE,141,16.0,30.0,38,0.00,,,0.00,Wunderground v.1.15,2013-04-06 17:56:00,
2013-04-06 13:01:00,68.3,41.0,29.82,SSE,162,16.0,25.0,37,0.00,,,0.00,Wunderground v.1.15,2013-04-06 18:01:00,
2013-04-06 13:07:00,68.6,42.6,29.81,South,179,16.0,25.0,39,0.00,,,0.00,Wunderground v.1.15,2013-04-06 18:07:00,
2013-04-06 13:12:00,69.1,42.4,29.81,South,185,15.0,16.0,38,0.00,,,0.00,Wunderground v.1.15,2013-04-06 18:12:00,
2013-04-06 13:18:00,68.6,42.6,29.81,South,177,15.0,22.0,39,0.00,,,0.00,Wunderground v.1.15,2013-04-06 18:18:00,
2013-04-06 13:23:00,68.9,42.9,29.80,South,175,16.0,24.0,39,0.00,,,0.00,Wunderground v.1.15,2013-04-06 18:23:00,
2013-04-06 13:29:00,69.9,43.1,29.80,SSE,158,17.0,24.0,38,0.00,,,0.00,Wunderground v.1.15,2013-04-06 18:29:00,
2013-04-06 13:35:00,70.1,42.6,29.80,SSE,163,17.0,25.0,37,0.00,,,0.00,Wunderground v.1.15,2013-04-06 18:35:00,
2013-04-06 13:41:00,70.2,42.7,29.79,SE,146,17.0,23.0,37,0.00,,,0.00,Wunderground v.1.15,2013-04-06 18:41:00,
2013-04-06 13:46:00,70.5,40.8,29.79,South,181,16.0,23.0,34,0.00,,,0.00,Wunderground v.1.15,2013-04-06 18:46:00,
2013-04-06 13:52:00,70.5,40.8,29.78,South,187,17.0,24.0,34,0.00,,,0.00,Wunderground v.1.15,2013-04-06 18:52:00,
2013-04-06 13:58:00,70.7,42.4,29.78,SSE,152,18.0,26.0,36,0.00,,,0.00,Wunderground v.1.15,2013-04-06 18:58:00,
2013-04-06 14:03:00,70.5,42.2,29.77,SW,220,18.0,21.0,36,0.00,,,0.00,Wunderground v.1.15,2013-04-06 19:03:00,
2013-04-06 14:09:00,70.9,41.9,29.76,SSE,157,17.0,34.0,35,0.00,,,0.00,Wunderground v.1.15,2013-04-06 19:09:00,
2013-04-06 14:15:00,71.3,42.2,29.76,South,181,16.0,21.0,35,0.00,,,0.00,Wunderground v.1.15,2013-04-06 19:15:00,
2013-04-06 14:20:00,71.7,40.3,29.76,South,182,15.0,21.0,32,0.00,,,0.00,Wunderground v.1.15,2013-04-06 19:20:00,
2013-04-06 14:27:00,71.3,39.1,29.75,SSW,195,18.0,28.0,31,0.00,,,0.00,Wunderground v.1.15,2013-04-06 19:27:00,
2013-04-06 14:32:00,71.2,39.8,29.75,South,181,19.0,24.0,32,0.00,,,0.00,Wunderground v.1.15,2013-04-06 19:32:00,
2013-04-06 14:38:00,71.4,40.0,29.74,SSE,164,17.0,24.0,32,0.00,,,0.00,Wunderground v.1.15,2013-04-06 19:38:00,
2013-04-06 14:44:00,70.8,39.5,29.74,SSW,197,17.0,27.0,32,0.00,,,0.00,Wunderground v.1.15,2013-04-06 19:44:00,
2013-04-06 14:50:00,70.1,38.9,29.74,SSE,164,17.0,21.0,32,0.00,,,0.00,Wunderground v.1.15,2013-04-06 19:50:00,
2013-04-06 14:55:00,69.6,40.0,29.74,South,179,16.0,21.0,34,0.00,,,0.00,Wunderground v.1.15,2013-04-06 19:55:00,
2013-04-06 15:00:00,69.3,40.5,29.74,SSW,202,15.0,22.0,35,0.00,,,0.00,Wunderground v.1.15,2013-04-06 20:00:00,
2013-04-06 15:06:00,69.0,39.4,29.74,South,181,15.0,26.0,34,0.00,,,0.00,Wunderground v.1.15,2013-04-06 20:06:00,
2013-04-06 15:11:00,68.6,38.3,29.73,SSW,196,16.0,24.0,33,0.00,,,0.00,Wunderground v.1.15,2013-04-06 20:11:00,
2013-04-06 15:17:00,68.3,39.6,29.73,SSE,156,17.0,25.0,35,0.00,,,0.00,Wunderground v.1.15,2013-04-06 20:17:00,
2013-04-06 15:22:00,68.5,41.2,29.72,SE,141,15.0,16.0,37,0.00,,,0.00,Wunderground v.1.15,2013-04-06 20:22:00,
2013-04-06 15:27:00,69.0,41.6,29.72,South,172,14.0,16.0,37,0.00,,,0.00,Wunderground v.1.15,2013-04-06 20:27:00,
2013-04-06 15:33:00,69.2,41.1,29.73,SSW,200,13.0,15.0,36,0.00,,,0.00,Wunderground v.1.15,2013-04-06 20:33:00,
2013-04-06 15:38:00,69.0,41.6,29.73,SSE,160,15.0,18.0,37,0.00,,,0.00,Wunderground v.1.15,2013-04-06 20:38:00,
2013-04-06 15:44:00,69.2,41.8,29.73,SSE,157,15.0,18.0,37,0.00,,,0.00,Wunderground v.1.15,2013-04-06 20:44:00,
2013-04-06 15:50:00,68.9,41.5,29.73,SSE,160,14.0,18.0,37,0.00,,,0.00,Wunderground v.1.15,2013-04-06 20:50:00,
2013-04-06 15:55:00,68.7,41.4,29.73,SSE,165,14.0,22.0,37,0.00,,,0.00,Wunderground v.1.15,2013-04-06 20:55:00,
2013-04-06 16:00:00,68.5,41.2,29.73,South,176,14.0,15.0,37,0.00,,,0.00,Wunderground v.1.15,2013-04-06 21:00:00,
2013-04-06 16:06:00,68.3,41.7,29.72,South,173,14.0,24.0,38,0.00,,,0.00,Wunderground v.1.15,2013-04-06 21:06:00,
2013-04-06 16:12:00,68.2,40.9,29.72,SSW,200,14.0,21.0,37,0.00,,,0.00,Wunderground v.1.15,2013-04-06 21:12:00,
2013-04-06 16:18:00,68.0,41.4,29.71,SE,141,13.0,21.0,38,0.00,,,0.00,Wunderground v.1.15,2013-04-06 21:18:00,
2013-04-06 16:23:00,67.9,40.7,29.71,SE,141,14.0,23.0,37,0.00,,,0.00,Wunderground v.1.15,2013-04-06 21:23:00,
2013-04-06 16:29:00,67.9,41.3,29.69,South,177,13.0,23.0,38,0.00,,,0.00,Wunderground v.1.15,2013-04-06 21:29:00,
2013-04-06 16:34:00,68.0,41.4,29.69,SSE,157,13.0,18.0,38,0.00,,,0.00,Wunderground v.1.15,2013-04-06 21:34:00,
2013-04-06 16:40:00,68.2,40.9,29.69,SSE,166,14.0,14.0,37,0.00,,,0.00,Wunderground v.1.15,2013-04-06 21:40:00,
2013-04-06 16:45:00,68.3,41.0,29.70,SSW,197,13.0,16.0,37,0.00,,,0.00,Wunderground v.1.15,2013-04-06 21:45:00,
2013-04-06 16:50:00,68.5,41.9,29.69,South,173,13.0,13.0,38,0.00,,,0.00,Wunderground v.1.15,2013-04-06 21:50:00,
2013-04-06 16:56:00,68.5,41.2,29.71,SSE,166,12.0,22.0,37,0.00,,,0.00,Wunderground v.1.15,2013-04-06 21:56:00,
2013-04-06 17:01:00,68.6,42.0,29.71,SSE,161,11.0,12.0,38,0.00,,,0.00,Wunderground v.1.15,2013-04-06 22:01:00,
2013-04-06 17:07:00,68.9,42.2,29.71,SSE,160,11.0,13.0,38,0.00,,,0.00,Wunderground v.1.15,2013-04-06 22:07:00,
2013-04-06 17:12:00,69.0,42.3,29.71,South,175,11.0,21.0,38,0.00,,,0.00,Wunderground v.1.15,2013-04-06 22:12:00,
2013-04-06 17:17:00,69.1,42.4,29.71,SE,141,11.0,21.0,38,0.00,,,0.00,Wunderground v.1.15,2013-04-06 22:17:00,
2013-04-06 17:23:00,68.9,42.2,29.70,South,189,12.0,14.0,38,0.00,,,0.00,Wunderground v.1.15,2013-04-06 22:23:00,
2013-04-06 17:29:00,68.5,41.9,29.70,South,169,12.0,14.0,38,0.00,,,0.00,Wunderground v.1.15,2013-04-06 22:29:00,
2013-04-06 17:35:00,68.5,41.2,29.69,SE,141,13.0,17.0,37,0.00,,,0.00,Wunderground v.1.15,2013-04-06 22:35:00,
2013-04-06 17:41:00,68.8,42.1,29.69,SSE,150,11.0,12.0,38,0.00,,,0.00,Wunderground v.1.15,2013-04-06 22:41:00,
2013-04-06 17:46:00,68.6,43.3,29.68,South,171,10.0,16.0,40,0.00,,,0.00,Wunderground v.1.15,2013-04-06 22:46:00,
2013-04-06 17:52:00,68.3,43.0,29.65,South,170,12.0,20.0,40,0.00,,,0.00,Wunderground v.1.15,2013-04-06 22:52:00,
2013-04-06 17:57:00,68.2,43.6,29.66,South,181,12.0,20.0,41,0.00,,,0.00,Wunderground v.1.15,2013-04-06 22:57:00,
2013-04-06 18:03:00,68.2,44.2,29.67,SSE,156,11.0,13.0,42,0.00,,,0.00,Wunderground v.1.15,2013-04-06 23:03:00,
2013-04-06 18:08:00,67.9,44.0,29.67,SE,141,11.0,21.0,42,0.00,,,0.00,Wunderground v.1.15,2013-04-06 23:08:00,
2013-04-06 18:14:00,67.8,43.9,29.67,South,189,10.0,14.0,42,0.00,,,0.00,Wunderground v.1.15,2013-04-06 23:14:00,
2013-04-06 18:19:00,68.2,42.9,29.68,South,173,9.0,14.0,40,0.00,,,0.00,Wunderground v.1.15,2013-04-06 23:19:00,
2013-04-06 18:25:00,68.8,41.5,29.69,SSE,150,10.0,17.0,37,0.00,,,0.00,Wunderground v.1.15,2013-04-06 23:25:00,
2013-04-06 18:31:00,68.8,40.7,29.69,South,187,10.0,10.0,36,0.00,,,0.00,Wunderground v.1.15,2013-04-06 23:31:00,
2013-04-06 18:37:00,68.5,40.5,29.69,South,181,11.0,16.0,36,0.00,,,0.00,Wunderground v.1.15,2013-04-06 23:37:00,
2013-04-06 18:43:00,68.1,40.8,29.70,South,179,12.0,12.0,37,0.00,,,0.00,Wunderground v.1.15,2013-04-06 23:43:00,
2013-04-06 18:49:00,67.7,40.5,29.70,South,169,11.0,17.0,37,0.00,,,0.00,Wunderground v.1.15,2013-04-06 23:49:00,
2013-04-06 18:54:00,67.2,40.7,29.70,SSE,154,11.0,13.0,38,0.00,,,0.00,Wunderground v.1.15,2013-04-06 23:54:00,
2013-04-06 18:59:00,66.8,41.0,29.70,SSW,196,10.0,13.0,39,0.00,,,0.00,Wunderground v.1.15,2013-04-06 23:59:00,
2013-04-06 19:05:00,66.5,40.8,29.70,South,174,10.0,11.0,39,0.00,,,0.00,Wunderground v.1.15,2013-04-07 00:05:00,
2013-04-06 19:10:00,66.2,41.2,29.70,SSE,167,9.0,12.0,40,0.00,,,0.00,Wunderground v.1.15,2013-04-07 00:10:00,
2013-04-06 19:16:00,65.8,41.4,29.70,SSE,167,9.0,15.0,41,0.00,,,0.00,Wunderground v.1.15,2013-04-07 00:16:00,
2013-04-06 19:22:00,65.4,41.7,29.70,SSE,163,9.0,11.0,42,0.00,,,0.00,Wunderground v.1.15,2013-04-07 00:22:00,
2013-04-06 19:27:00,65.1,41.4,29.70,South,176,9.0,14.0,42,0.00,,,0.00,Wunderground v.1.15,2013-04-07 00:27:00,
2013-04-06 19:33:00,64.8,41.8,29.70,SSW,200,9.0,11.0,43,0.00,,,0.00,Wunderground v.1.15,2013-04-07 00:33:00,
2013-04-06 19:38:00,64.5,41.5,29.71,SSE,167,8.0,11.0,43,0.00,,,0.00,Wunderground v.1.15,2013-04-07 00:38:00,
2013-04-06 19:43:00,64.3,41.3,29.71,SSW,198,7.0,9.0,43,0.00,,,0.00,Wunderground v.1.15,2013-04-07 00:43:00,
2013-04-06 19:48:00,64.1,41.7,29.71,SSE,167,7.0,10.0,44,0.00,,,0.00,Wunderground v.1.15,2013-04-07 00:48:00,
2013-04-06 19:54:00,63.8,42.0,29.71,South,181,7.0,12.0,45,0.00,,,0.00,Wunderground v.1.15,2013-04-07 00:54:00,
2013-04-06 19:59:00,63.7,41.9,29.71,South,180,7.0,12.0,45,0.00,,,0.00,Wunderground v.1.15,2013-04-07 00:59:00,
2013-04-06 20:05:00,63.5,41.8,29.71,South,175,7.0,11.0,45,0.00,,,0.00,Wunderground v.1.15,2013-04-07 01:05:00,
2013-04-06 20:10:00,63.4,41.7,29.71,SSE,167,8.0,8.0,45,0.00,,,0.00,Wunderground v.1.15,2013-04-07 01:10:00,
2013-04-06 20:15:00,63.3,41.6,29.71,South,177,7.0,10.0,45,0.00,,,0.00,Wunderground v.1.15,2013-04-07 01:15:00,
2013-04-06 20:20:00,63.3,42.2,29.72,South,169,7.0,7.0,46,0.00,,,0.00,Wunderground v.1.15,2013-04-07 01:20:00,
2013-04-06 20:27:00,63.3,42.2,29.72,South,172,7.0,7.0,46,0.00,,,0.00,Wunderground v.1.15,2013-04-07 01:27:00,
2013-04-06 20:33:00,63.3,42.2,29.72,SSE,158,7.0,9.0,46,0.00,,,0.00,Wunderground v.1.15,2013-04-07 01:33:00,
2013-04-06 20:38:00,63.2,42.1,29.72,SSE,156,7.0,11.0,46,0.00,,,0.00,Wunderground v.1.15,2013-04-07 01:38:00,
2013-04-06 20:44:00,63.2,42.1,29.72,SSW,200,8.0,10.0,46,0.00,,,0.00,Wunderground v.1.15,2013-04-07 01:44:00,
2013-04-06 20:50:00,63.1,42.0,29.72,South,187,7.0,7.0,46,0.00,,,0.00,Wunderground v.1.15,2013-04-07 01:50:00,
2013-04-06 20:57:00,63.0,42.4,29.72,SSE,151,6.0,10.0,47,0.00,,,0.00,Wunderground v.1.15,2013-04-07 01:57:00,
2013-04-06 21:02:00,62.8,42.8,29.72,South,182,7.0,11.0,48,0.00,,,0.00,Wunderground v.1.15,2013-04-07 02:02:00,
2013-04-06 21:08:00,62.5,42.5,29.72,SSE,163,8.0,12.0,48,0.00,,,0.00,Wunderground v.1.15,2013-04-07 02:08:00,
2013-04-06 21:14:00,62.4,42.4,29.72,South,177,9.0,14.0,48,0.00,,,0.00,Wunderground v.1.15,2013-04-07 02:14:00,
2013-04-06 21:20:00,62.3,42.9,29.71,South,171,8.0,8.0,49,0.00,,,0.00,Wunderground v.1.15,2013-04-07 02:20:00,
2013-04-06 21:25:00,62.4,43.0,29.71,South,169,9.0,14.0,49,0.00,,,0.00,Wunderground v.1.15,2013-04-07 02:25:00,
2013-04-06 21:31:00,62.2,43.3,29.71,South,183,9.0,9.0,50,0.00,,,0.00,Wunderground v.1.15,2013-04-07 02:31:00,
2013-04-06 21:37:00,62.1,43.2,29.71,South,173,8.0,13.0,50,0.00,,,0.00,Wunderground v.1.15,2013-04-07 02:37:00,
2013-04-06 21:42:00,62.0,43.1,29.71,South,183,8.0,10.0,50,0.00,,,0.00,Wunderground v.1.15,2013-04-07 02:42:00,
2013-04-06 21:48:00,62.1,43.2,29.71,South,191,9.0,13.0,50,0.00,,,0.00,Wunderground v.1.15,2013-04-07 02:48:00,
2013-04-06 21:53:00,62.4,43.5,29.71,SSW,192,10.0,16.0,50,0.00,,,0.00,Wunderground v.1.15,2013-04-07 02:53:00,
2013-04-06 21:59:00,62.7,43.8,29.72,South,181,10.0,19.0,50,0.00,,,0.00,Wunderground v.1.15,2013-04-07 02:59:00,
2013-04-06 22:05:00,62.9,44.0,29.72,SSE,168,11.0,14.0,50,0.00,,,0.00,Wunderground v.1.15,2013-04-07 03:05:00,
2013-04-06 22:11:00,63.1,44.2,29.72,SSE,155,11.0,11.0,50,0.00,,,0.00,Wunderground v.1.15,2013-04-07 03:11:00,
2013-04-06 22:16:00,63.2,44.2,29.72,SSW,201,11.0,18.0,50,0.00,,,0.00,Wunderground v.1.15,2013-04-07 03:16:00,
2013-04-06 22:22:00,63.2,44.2,29.72,South,176,11.0,16.0,50,0.00,,,0.00,Wunderground v.1.15,2013-04-07 03:22:00,
2013-04-06 22:27:00,63.1,44.2,29.72,SSW,192,12.0,17.0,50,0.00,,,0.00,Wunderground v.1.15,2013-04-07 03:27:00,
2013-04-06 22:32:00,62.9,44.0,29.73,South,188,12.0,23.0,50,0.00,,,0.00,Wunderground v.1.15,2013-04-07 03:32:00,
2013-04-06 22:38:00,62.8,44.4,29.73,South,187,12.0,23.0,51,0.00,,,0.00,Wunderground v.1.15,2013-04-07 03:38:00,
2013-04-06 22:43:00,62.8,44.4,29.73,South,182,12.0,13.0,51,0.00,,,0.00,Wunderground v.1.15,2013-04-07 03:43:00,
2013-04-06 22:48:00,62.9,44.5,29.73,South,191,11.0,19.0,51,0.00,,,0.00,Wunderground v.1.15,2013-04-07 03:48:00,
2013-04-06 22:54:00,62.9,45.0,29.73,South,179,11.0,15.0,52,0.00,,,0.00,Wunderground v.1.15,2013-04-07 03:54:00,
2013-04-06 22:59:00,63.0,45.1,29.73,South,183,13.0,24.0,52,0.00,,,0.00,Wunderground v.1.15,2013-04-07 03:59:00,
2013-04-06 23:00:00,62.9,45.5,29.73,SSW,195,13.0,13.0,53,0.00,,,0.00,Wunderground v.1.15,2013-04-07 04:00:00,
2013-04-06 23:02:00,62.9,45.0,29.73,SSW,209,14.0,14.0,52,0.00,,,0.00,Wunderground v.1.15,2013-04-07 04:02:00,
2013-04-06 23:03:00,62.9,45.0,29.74,SSW,196,14.0,15.0,52,0.00,,,0.00,Wunderground v.1.15,2013-04-07 04:03:00,
2013-04-06 23:04:00,62.9,45.0,29.74,SSW,193,14.0,15.0,52,0.00,,,0.00,Wunderground v.1.15,2013-04-07 04:04:00,
2013-04-06 23:09:00,62.8,45.4,29.74,South,175,14.0,18.0,53,0.00,,,0.00,Wunderground v.1.15,2013-04-07 04:09:00,
2013-04-06 23:15:00,62.5,47.1,29.74,SSW,195,12.0,16.0,57,0.00,,,0.00,Wunderground v.1.15,2013-04-07 04:15:00,
2013-04-06 23:20:00,61.4,46.9,29.74,SSW,198,11.0,13.0,59,0.00,,,0.01,Wunderground v.1.15,2013-04-07 04:20:00,
2013-04-06 23:26:00,60.9,46.9,29.74,SSW,195,10.0,16.0,60,0.00,,,0.01,Wunderground v.1.15,2013-04-07 04:26:00,
2013-04-06 23:32:00,60.7,46.7,29.74,South,185,8.0,9.0,60,0.00,,,0.01,Wunderground v.1.15,2013-04-07 04:32:00,
2013-04-06 23:37:00,60.7,46.7,29.74,SSW,193,9.0,12.0,60,0.00,,,0.01,Wunderground v.1.15,2013-04-07 04:37:00,
2013-04-06 23:42:00,60.8,46.8,29.75,South,177,11.0,17.0,60,0.00,,,0.01,Wunderground v.1.15,2013-04-07 04:42:00,
2013-04-06 23:47:00,60.8,46.8,29.75,SW,217,11.0,19.0,60,0.00,,,0.01,Wunderground v.1.15,2013-04-07 04:47:00,
2013-04-06 23:52:00,60.8,47.3,29.75,SW,215,10.0,11.0,61,0.00,,,0.01,Wunderground v.1.15,2013-04-07 04:52:00,
2013-04-06 23:58:00,60.6,47.5,29.76,SSW,201,11.0,13.0,62,0.00,,,0.00,Wunderground v.1.15,2013-04-07 04:58:00,